Content
SEND FEEDBACK

Daily
Averages
Monthly
Summary
Germany

GARMISCH-PARTENKIRCHEN, GERMANY


Home > Europe > Germany
Elevation: 2322 feet     Latitude: 47 30N     Longitude: 011 06E

WEATHER
 
SELECT A DAY
Number of Records: 311,500;   Date Range: 7/1/96 - 8/10/14
 
SHARE

PRINT THIS DATA

[ ← Previous Day ]
WEATHER ALMANAC - APRIL 18, 2013
[ Next Day → ]
[ °C ]   °F
Weather ElementAverageHighLow
Temperature60.9 °F77 °F (3:20 pm)46.4 °F (5:20 am)
Dewpoint45.2 °F48.2 °F (12:50 pm)41 °F (6:20 am)
Humidity58.1 %87 % (5:20 am)25 % (5:00 pm)
Barometer30.12 in30.24 in (8:00 am)29.96 in (5:00 pm)
Wind Speed4.2 mph9.2 mph (12:20 pm)
Weather ElementAverage
Visibility11.6 mi
Wind DirectionSSE (150.2 °)

Weather ElementTotal
Precipitation---
Heating Degree Days3.3 (Base 65)
Growing Degree Days11.7 (Base 50)
Averaged from 55 records on April 18, 2013
WEATHER CONDITIONS BREAKOUT
WIND DIRECTION BREAKOUT
WEATHER BY HOUR - APRIL 18, 2013
[ °C ]   °F
Local TimeTemperatureDewpointHumidityBarometerVisibilityWind DirectionWind SpeedGust SpeedPrecipitationEventsConditions
12:50 AM53.6 °F44.6 °F72 %30.18 in6.2 miWSW (240°)3.5 mph
1:20 AM50.0 °F44.6 °F82 %30.21 in6.2 miVariable1.2 mph
1:50 AM50.0 °F42.8 °F76 %30.18 in6.2 miVariable1.2 mph
2:00 AM50.0 °F44.0 °F71 %30.21 in28.0 mi°2.2 mph
2:20 AM50.0 °F44.6 °F82 %30.18 in6.2 miWest (280°)3.5 mph
2:50 AM50.0 °F42.8 °F76 %30.18 in6.2 miWSW (240°)3.5 mphPartly Cloudy
3:20 AM48.2 °F42.8 °F82 %30.18 in6.2 miWest (280°)3.5 mph
3:50 AM48.2 °F42.8 °F82 %30.21 inWest (260°)2.3 mphClear
4:20 AM48.2 °F42.8 °F82 %30.18 inSSW (210°)3.5 mphClear
4:50 AM48.2 °F42.8 °F82 %30.18 inWest (260°)3.5 mphClear
5:00 AM47.0 °F43.0 °F82 %30.23 in25.0 miWest (260°)4.5 mph
5:20 AM46.4 °F42.8 °F87 %30.18 inVariable1.2 mphClear
5:50 AM48.2 °F42.8 °F82 %30.18 inWSW (240°)3.5 mphClear
6:20 AM46.4 °F41.0 °F81 %30.18 inVariable1.2 mphClear
6:50 AM46.4 °F41.0 °F81 %30.21 inVariable2.3 mphClear
7:20 AM48.2 °F42.8 °F82 %30.21 inWest (280°)2.3 mphClear
7:50 AM48.2 °F42.8 °F82 %30.21 inWest (260°)3.5 mphClear
8:00 AM48.0 °F43.0 °F78 %30.24 in44.0 miWest (260°)4.5 mphScattered Clouds
8:20 AM51.8 °F42.8 °F71 %30.21 inVariable1.2 mphClear
8:50 AM55.4 °F44.6 °F67 %30.21 in6.2 miVariable2.3 mphScattered Clouds
9:20 AM55.4 °F44.6 °F67 %30.18 in6.2 miWest (280°)3.5 mphScattered Clouds
9:50 AM59.0 °F44.6 °F59 %30.18 in6.2 miWest (260°)5.8 mphScattered Clouds
10:20 AM60.8 °F46.4 °F59 %30.15 in6.2 miWest (280°)5.8 mphScattered Clouds
10:50 AM62.6 °F42.8 °F48 %30.15 in6.2 miWest (280°)5.8 mphScattered Clouds
11:00 AM63.0 °F44.0 °F38 %30.13 in44.0 miWest (280°)6.7 mphScattered Clouds
11:20 AM64.4 °F42.8 °F45 %30.15 in6.2 miWest (260°)5.8 mphScattered Clouds
11:50 AM66.2 °F44.6 °F46 %30.15 in6.2 miWest (280°)4.6 mphMostly Cloudy
12:20 PM68.0 °F46.4 °F46 %30.12 in6.2 miWest (270°)9.2 mphMostly Cloudy
12:50 PM69.8 °F48.2 °F46 %30.12 in6.2 miWest (280°)9.2 mphMostly Cloudy
1:20 PM71.6 °F46.4 °F41 %30.09 in6.2 miWest (280°)9.2 mphMostly Cloudy
1:50 PM71.6 °F48.2 °F43 %30.09 in6.2 miWest (270°)9.2 mphMostly Cloudy
2:00 PM71.0 °F47.0 °F32 %30.04 in44.0 miWest (270°)8.9 mphScattered Clouds
2:20 PM73.4 °F48.2 °F41 %30.09 in6.2 miWest (260°)6.9 mphMostly Cloudy
2:50 PM73.4 °F44.6 °F36 %30.06 in6.2 miWest (270°)3.5 mphScattered Clouds
3:20 PM77.0 °F46.4 °F34 %30.06 in6.2 miVariable1.2 mphScattered Clouds
3:50 PM77.0 °F44.6 °F32 %30.06 in6.2 miVariable2.3 mphMostly Cloudy
4:20 PM75.2 °F46.4 °F36 %30.04 in6.2 miENE (60°)8.1 mphMostly Cloudy
4:50 PM77.0 °F46.4 °F34 %30.04 in6.2 miEast (90°)4.6 mphMostly Cloudy
5:00 PM76.0 °F47.0 °F25 %29.96 in44.0 miEast (90°)4.5 mphScattered Clouds
5:20 PM75.2 °F46.4 °F36 %30.04 in6.2 miNNE (30°)5.8 mphMostly Cloudy
5:50 PM73.4 °F46.4 °F38 %30.04 in6.2 miENE (60°)6.9 mphMostly Cloudy
6:20 PM71.6 °F46.4 °F41 %30.04 in6.2 miNE (50°)9.2 mphMostly Cloudy
6:50 PM69.8 °F48.2 °F46 %30.04 in6.2 miNE (40°)8.1 mphScattered Clouds
7:20 PM69.8 °F46.4 °F43 %30.04 in6.2 miVariable2.3 mphScattered Clouds
7:50 PM68.0 °F46.4 °F46 %30.04 in6.2 miVariable4.6 mphScattered Clouds
8:00 PM69.0 °F47.0 °F34 %29.99 in37.0 mi°4.5 mphScattered Clouds
8:20 PM68.0 °F46.4 °F46 %30.06 in6.2 miWSW (240°)4.6 mphMostly Cloudy
8:50 PM64.4 °F46.4 °F52 %30.06 in6.2 miWest (260°)4.6 mphMostly Cloudy
9:20 PM64.4 °F48.2 °F56 %30.06 in6.2 miVariable2.3 mphMostly Cloudy
9:50 PM62.6 °F48.2 °F59 %30.06 in6.2 miVariable1.2 mphMostly Cloudy
10:20 PM60.8 °F48.2 °F63 %30.06 in6.2 miVariable2.3 mphMostly Cloudy
10:50 PM60.8 °F48.2 °F63 %30.09 in6.2 miVariable1.2 mphMostly Cloudy
11:00 PM60.0 °F48.0 °F54 %30.06 in25.0 mi°2.2 mphScattered Clouds
11:20 PM59.0 °F46.4 °F63 %30.09 in6.2 miVariable1.2 mphScattered Clouds
11:50 PM57.2 °F46.4 °F67 %30.09 in6.2 miVariable2.3 mphScattered Clouds
Hourly data recorded from LOWI, located miles away from Garmisch-Partenkirchen, Germany







STORIES FROM OUR PARTNERS